星链-2228 (STARLINK-2228 )

导读

STARLINK-2228是由美国发射的星链计划卫星,星链是美国SpaceX公司打造的低轨卫星互联网项目。该星于2021年5月15日发射入轨,属于星链星座组网的组成单元,主要为全球范围内提供高速互联网接入服务,弥补地面网络覆盖盲区,推动全球互联网普及,是星链大规模部署进程中的一颗典型低轨通信卫星。

基本信息
目录编号:
48576
目录名称:
STARLINK-2228
国际标识:
2021-041Z
轨道中心:
EARTH
卫星名称:
星链-2228
卫星全名:
星链-2228 (STARLINK-2228 )
卫星状态:
在轨 (已飞行1860 天)
发射日期:
2021-05-15 UTC
国别 :
美国 (US)
星等 :
--
轨道信息
数据来源 国际轨道数据
星历时间: 2026-06-18T06:37:49+0800
18小时前
查看轨道信息
半长轴: 6848.865km
偏心率: 0.000117
轨道倾角: 53.159°
近地点辐角 91.538°
升交点赤经 354.675°
平近点角 268.576°
近地点: 469.926km
远地点: 471.53km
周期: 94.013分钟
每日圈数: 15.317043
详细信息
固有亮度:
5
最大亮度:
2.5
卫星平台:
Starlink V1.0
覆盖范围:
全球
运营商:
太空探索技术公司
运营商所在国:
美国
制造商(研发单位):
太空探索技术公司
制造商所在国:
美国
使用方式:
暂无
卫星简介
星链(Starlink)计划是由太空探索技术公司(SpaceX)提出的一个巨型低轨卫星互联网星座项目,计划在2019年至2024年间在太空搭建由约1.2万颗卫星组成的“星链”网络,其中1584颗将部署在地球上空550千米处的近地轨道,并从2020年开始工作。该卫星仍在工作。
2D轨道图
3D轨道图
轨道高度分析图
轨道倾角分析图
轨道综合分析图
查看轨道综合分析图